Location: Newark
(3.0500°N, 36.0167°E)
Time: 05:28:10
(UTC+00:00)

A-11 Canister half - Pass Details

Date: 01 September 2019
Orbit: 1527 x 1682 km, 47.3° (Epoch: 13 September)

Event Time Altitude Azimuth Distance (km) Brightness Sun altitude
Rises 02:47:35 0° 203° (SSW) 4,677 11.2 -11.5°
Reaches altitude 10° 02:50:53 10° 196° (SSW) 3,702 10.8 -10.7°
Maximum altitude 02:59:27 40° 129° (SE) 2,146 10.2 -8.6°
Drops below altitude 10° 03:08:09 10° 63° (ENE) 3,783 12.5 -6.5°
Sets 03:11:32 0° 56° (NE) 4,790 13.0 -5.6°
